Amateur Radio Satellites - All Passes

Search period start: 23 May 2013 20:49
Search period end: 24 May 2013 20:49
Location: Oregon Star Party, 44.2935°N, 120.1332°W

Satellite Date Start Highest point End Downlink Frequencies (MHz)
Time Altitude Azimuth
OPAL 23 May 21:01:29 21:04:51 18° 57° (ENE) 21:08:12 ?
JAS-2 23 May 21:06:44 21:14:06 48° 66° (ENE) 21:21:28 435.800 - 435.900 CW/SSB, 435.910 FM
KITSAT 1 23 May 21:18:18 21:21:30 13° 98° (E) 21:24:42 435.175 FM
HO-68 23 May 21:31:07 21:38:16 89° 72° (ENE) 21:45:27 435.675 MHz FM
JAS-1B 23 May 21:31:12 21:38:21 26° 268° (W) 21:44:45 435.800 - 435.900 CW/SSB
Oscar 11 23 May 21:39:52 21:44:04 54° 73° (ENE) 21:48:18 145.825 FM, Beacon 2401.500 USB
OPAL 23 May 22:38:01 22:43:12 72° 255° (WSW) 22:48:22 ?
RS-15 23 May 22:49:49 22:59:34 31° 21° (NNE) 23:08:58 29.354 - 29.394 USB, Beacon 29.352 USB
JAS-2 23 May 22:51:51 22:59:06 42° 265° (W) 23:06:27 435.800 - 435.900 CW/SSB, 435.910 FM
KITSAT 1 23 May 23:07:24 23:15:21 67° 117° (ESE) 23:23:22 435.175 FM
Oscar 11 23 May 23:18:10 23:20:38 15° 269° (W) 23:23:07 145.825 FM, Beacon 2401.500 USB
HO-68 23 May 23:22:23 23:26:51 17° 271° (W) 23:31:21 435.675 MHz FM
AO-40 23 May 23:30:25 04:43:11 35° 161° (SSE) 07:33:45 Beacon 2401.320
RS-15 24 May 01:03:07 01:14:20 72° 51° (NE) 01:25:12 29.354 - 29.394 USB, Beacon 29.352 USB
KITSAT 1 24 May 01:04:00 01:11:19 36° 319° (NW) 01:18:42 435.175 FM
MaSat-1 24 May 01:28:29 01:35:09 47° 112° (ESE) 01:40:40 437.345 MHz
Uribyol 2 24 May 02:11:12 02:15:29 25° 94° (E) 02:19:45 436.500 FM
Oscar 19 24 May 02:11:33 02:16:01 29° 95° (E) 02:20:25 437.125 CW, 437.150 USB
ISS 24 May 02:37:22 02:40:31 43° 142° (SE) 02:43:42 145.800 FM
Oscar 16 24 May 02:50:43 02:55:56 76° 103° (ESE) 03:01:04 437.025 USB, Beacon 2401.1428
AO-27 24 May 03:02:57 03:08:11 71° 103° (ESE) 03:13:24 436.795 MHz FM
KITSAT 1 24 May 03:04:43 03:09:33 17° 348° (NNW) 03:14:24 435.175 FM
ITAMSAT 1 24 May 03:09:14 03:14:30 79° 104° (ESE) 03:19:44 435.822 SSB
MaSat-1 24 May 03:11:18 03:17:23 35° 305° (NW) 03:22:25 437.345 MHz
RS-15 24 May 03:16:21 03:25:47 35° 254° (WSW) 03:35:06 29.354 - 29.394 USB, Beacon 29.352 USB
Gurwin Techsat 1B 24 May 03:36:12 03:39:59 20° 91° (E) 03:43:45 435.225 FM
Uosat F 24 May 03:37:31 03:41:27 23° 93° (E) 03:45:22 435.120 FM
AO-Echo 24 May 03:42:48 03:47:31 58° 101° (E) 03:52:18 ?
Uribyol 2 24 May 03:50:12 03:55:10 45° 291° (WNW) 04:00:07 436.500 FM
Oscar 19 24 May 03:50:41 03:55:27 38° 292° (WNW) 04:00:10 437.125 CW, 437.150 USB
ISS 24 May 04:14:10 04:17:17 36° 340° (NNW) 04:20:25 145.800 FM
Saudisat 1A 24 May 04:25:53 04:27:23 11° 107° (ESE) 04:28:53 436.775 MHz
Oscar 10/S400 24 May 04:26:28 08:49:08 66° 207° (SSW) 14:48:47 145.825 - 145.975 CW/USB, Beacon 145.810 USB
Oscar 16 24 May 04:31:34 04:34:41 16° 301° (WNW) 04:37:47 437.025 USB, Beacon 2401.1428
AO-27 24 May 04:43:47 04:47:09 18° 301° (WNW) 04:50:30 436.795 MHz FM
ITAMSAT 1 24 May 04:50:17 04:53:22 16° 302° (WNW) 04:56:26 435.822 SSB
TMSAT-1 24 May 04:52:17 04:57:34 63° 101° (E) 05:02:49 436.925 FM
AO-7 24 May 04:57:39 05:04:33 28° 94° (E) 05:11:23 29.400 - 29.500 MHz
KITSAT 1 24 May 05:03:29 05:08:49 18° 19° (NNE) 05:14:08 435.175 FM
Gurwin Techsat 1B 24 May 05:15:08 05:20:21 58° 289° (WNW) 05:25:33 435.225 FM
Uosat F 24 May 05:15:41 05:20:29 46° 291° (WNW) 05:25:17 435.120 FM
AO-Echo 24 May 05:22:46 05:25:54 18° 298° (WNW) 05:29:04 ?
ISS 24 May 05:51:55 05:54:38 22° 0° (N) 05:57:21 145.800 FM
STRAND 1 24 May 05:54:07 05:58:53 42° 68° (ENE) 06:03:41 ?
Saudisat 1A 24 May 06:01:47 06:06:22 89° 305° (NW) 06:11:01 436.775 MHz
Sapphire 24 May 06:17:45 06:21:07 17° 105° (ESE) 06:24:29 437.095 MHz 1200 baud AX-25 AFSK
TMSAT-1 24 May 06:33:16 06:37:02 20° 299° (WNW) 06:40:46 436.925 FM
AO-7 24 May 06:49:39 06:57:58 71° 293° (WNW) 07:06:15 29.400 - 29.500 MHz
KITSAT 1 24 May 06:58:52 07:06:38 45° 45° (NE) 07:14:20 435.175 FM
Hamsat 24 May 07:24:19 07:28:02 27° 95° (E) 07:31:45 145.90 MHz
JAS-1B 24 May 07:25:17 07:28:03 13° 86° (E) 07:30:44 435.800 - 435.900 CW/SSB
PCSat 24 May 07:25:29 07:30:50 66° 117° (ESE) 07:36:13 145.825 MHz
ISS 24 May 07:28:49 07:31:59 37° 20° (NNE) 07:35:08 145.800 FM
STRAND 1 24 May 07:34:04 07:38:15 25° 266° (W) 07:42:28 ?
Saudisat 1A 24 May 07:43:41 07:46:45 17° 325° (NW) 07:49:49 436.775 MHz
SO-50 24 May 07:51:14 07:54:58 23° 113° (ESE) 07:58:41 436.795 FM
Sapphire 24 May 07:58:30 08:03:54 74° 303° (WNW) 08:09:21 437.095 MHz 1200 baud AX-25 AFSK
SO-67 24 May 08:38:52 08:42:26 59° 100° (E) 08:45:58 435.3500 MHz FM
AO-7 24 May 08:44:04 08:49:21 19° 314° (NW) 08:54:38 29.400 - 29.500 MHz
KITSAT 1 24 May 08:54:24 09:02:10 51° 247° (WSW) 09:09:54 435.175 FM
HO-68 24 May 08:59:20 09:03:01 15° 87° (E) 09:06:41 435.675 MHz FM
Hamsat 24 May 09:00:16 09:04:06 30° 291° (WNW) 09:07:56 145.90 MHz
ISS 24 May 09:05:32 09:08:44 42° 218° (SW) 09:11:56 145.800 FM
PCSat 24 May 09:10:22 09:14:44 24° 317° (NW) 09:19:08 145.825 MHz
JAS-1B 24 May 09:13:39 09:19:45 80° 287° (WNW) 09:25:24 435.800 - 435.900 CW/SSB
SO-50 24 May 09:30:39 09:35:19 50° 310° (NW) 09:39:55 436.795 FM
Sapphire 24 May 09:44:56 09:48:19 16° 324° (NW) 09:51:42 437.095 MHz 1200 baud AX-25 AFSK
JAS-2 24 May 10:00:55 10:06:56 32° 92° (E) 10:12:19 435.800 - 435.900 CW/SSB, 435.910 FM
MaSat-1 24 May 10:13:12 10:15:27 16° 45° (NE) 10:17:27 437.345 MHz
SO-67 24 May 10:14:40 10:15:24 11° 297° (WNW) 10:16:08 435.3500 MHz FM
UOSAT-12 24 May 10:42:28 10:46:04 24° 113° (ESE) 10:49:42 437.025 FM, 437.400 FM
HO-68 24 May 10:44:35 10:51:47 80° 106° (ESE) 10:58:58 435.675 MHz FM
OPAL 24 May 10:47:06 10:51:13 25° 96° (E) 10:55:17 ?
Oscar 11 24 May 11:02:14 11:06:38 89° 104° (ESE) 11:11:01 145.825 FM, Beacon 2401.500 USB
JAS-1B 24 May 11:06:41 11:09:16 13° 310° (NW) 11:11:46 435.800 - 435.900 CW/SSB
SO-50 24 May 11:15:08 11:17:02 12° 331° (NNW) 11:18:57 436.795 FM
JAS-2 24 May 11:45:39 11:52:14 47° 294° (WNW) 11:58:03 435.800 - 435.900 CW/SSB, 435.910 FM
MaSat-1 24 May 11:54:52 11:57:36 25° 253° (WSW) 11:59:57 437.345 MHz
UOSAT-12 24 May 12:21:39 12:25:59 45° 311° (NW) 12:30:23 437.025 FM, 437.400 FM
OPAL 24 May 12:25:34 12:30:16 41° 294° (WNW) 12:34:54 ?
Oscar 16 24 May 12:32:13 12:35:44 19° 60° (ENE) 12:39:15 437.025 USB, Beacon 2401.1428
HO-68 24 May 12:33:23 12:38:44 23° 305° (NW) 12:44:05 435.675 MHz FM
Oscar 11 24 May 12:41:12 12:42:10 11° 301° (WNW) 12:43:09 145.825 FM, Beacon 2401.500 USB
AO-27 24 May 12:45:38 12:49:05 18° 60° (ENE) 12:52:33 436.795 MHz FM
Saudisat 1A 24 May 12:48:52 12:52:18 20° 38° (NE) 12:55:40 436.775 MHz
ITAMSAT 1 24 May 12:51:32 12:55:13 20° 61° (ENE) 12:58:54 435.822 SSB
AO-Echo 24 May 13:22:38 13:24:19 12° 58° (ENE) 13:25:59 ?
Oscar 19 24 May 13:29:53 13:34:51 48° 70° (ENE) 13:39:52 437.125 CW, 437.150 USB
Uribyol 2 24 May 13:30:36 13:35:29 44° 69° (ENE) 13:40:24 436.500 FM
UOSAT-12 24 May 14:06:07 14:07:21 11° 333° (NNW) 14:08:34 437.025 FM, 437.400 FM
Oscar 16 24 May 14:09:25 14:14:35 66° 258° (WSW) 14:19:47 437.025 USB, Beacon 2401.1428
AO-7 24 May 14:12:44 14:15:15 12° 37° (NE) 14:17:46 29.400 - 29.500 MHz
AO-27 24 May 14:22:57 14:28:06 67° 258° (WSW) 14:33:17 436.795 MHz FM
Saudisat 1A 24 May 14:27:56 14:32:29 70° 238° (WSW) 14:36:55 436.775 MHz
ITAMSAT 1 24 May 14:29:10 14:34:16 60° 259° (WSW) 14:39:25 435.822 SSB
PCSat 24 May 14:29:36 14:33:00 16° 36° (NE) 14:36:23 145.825 MHz
TMSAT-1 24 May 14:37:31 14:40:47 17° 59° (ENE) 14:44:04 436.925 FM
Uosat F 24 May 14:52:20 14:56:53 37° 67° (ENE) 15:01:28 435.120 FM
AO-Echo 24 May 14:57:35 15:02:26 89° 76° (ENE) 15:07:11 ?
Gurwin Techsat 1B 24 May 14:58:39 15:03:26 36° 67° (ENE) 15:08:14 435.225 FM
Sapphire 24 May 15:02:12 15:06:35 24° 43° (NE) 15:10:57 437.095 MHz 1200 baud AX-25 AFSK
Oscar 19 24 May 15:10:24 15:14:28 23° 267° (W) 15:18:33 437.125 CW, 437.150 USB
Uribyol 2 24 May 15:10:55 15:15:09 25° 266° (W) 15:19:25 436.500 FM
RS-15 24 May 15:28:25 15:39:01 38° 107° (ESE) 15:49:12 29.354 - 29.394 USB, Beacon 29.352 USB
AO-7 24 May 15:58:12 16:05:54 45° 60° (ENE) 16:13:38 29.400 - 29.500 MHz
PCSat 24 May 16:11:57 16:17:24 74° 57° (ENE) 16:22:49 145.825 MHz
TMSAT-1 24 May 16:14:49 16:20:06 76° 257° (WSW) 16:25:26 436.925 FM
SO-50 24 May 16:21:02 16:25:12 33° 45° (NE) 16:29:18 436.795 FM
Uosat F 24 May 16:31:29 16:35:46 28° 265° (W) 16:40:04 435.120 FM
Gurwin Techsat 1B 24 May 16:38:42 16:43:25 32° 264° (W) 16:48:10 435.225 FM
AO-Echo 24 May 16:41:37 16:41:52 10° 272° (W) 16:42:08 ?
Sapphire 24 May 16:45:06 16:50:30 66° 243° (WSW) 16:55:52 437.095 MHz 1200 baud AX-25 AFSK
RS-15 24 May 17:38:46 17:50:45 71° 310° (NW) 18:02:14 29.354 - 29.394 USB, Beacon 29.352 USB
AO-7 24 May 17:50:46 17:58:38 47° 260° (W) 18:06:36 29.400 - 29.500 MHz
PCSat 24 May 17:56:47 18:00:12 17° 255° (WSW) 18:03:37 145.825 MHz
SO-50 24 May 18:01:44 18:05:48 33° 244° (WSW) 18:09:48 436.795 FM
STRAND 1 24 May 18:05:12 18:07:13 12° 88° (E) 18:09:13 ?
JAS-1B 24 May 18:10:02 18:16:29 24° 58° (ENE) 18:22:14 435.800 - 435.900 CW/SSB
Hamsat 24 May 18:20:24 18:23:47 24° 67° (ENE) 18:27:12 145.90 MHz
UOSAT-12 24 May 19:09:48 19:14:03 36° 46° (NE) 19:18:18 437.025 FM, 437.400 FM
SO-67 24 May 19:16:33 19:19:38 28° 70° (ENE) 19:22:43 435.3500 MHz FM
HO-68 24 May 19:30:56 19:34:56 16° 49° (NE) 19:38:55 435.675 MHz FM
STRAND 1 24 May 19:41:54 19:47:05 86° 285° (WNW) 19:52:14 ?
RS-15 24 May 19:55:35 20:05:38 31° 339° (NNW) 20:15:20 29.354 - 29.394 USB, Beacon 29.352 USB
Hamsat 24 May 19:55:55 19:59:43 32° 264° (W) 20:03:34 145.90 MHz
JAS-1B 24 May 19:57:18 20:06:26 85° 255° (WSW) 20:14:08 435.800 - 435.900 CW/SSB
JAS-2 24 May 20:14:08 20:19:56 24° 56° (ENE) 20:25:41 435.800 - 435.900 CW/SSB, 435.910 FM

Developed and maintained by Chris Peat, Heavens-Above GmbH. Please read the updated FAQ before sending e-mail. Imprint. DLR
